Simultaneous Nadir Overpasses (SNOs) Predictions

Prediction of SNOs between GOES-16 and NOAA-19 Satellite Orbit:

Table of predicted SNOs for the next 14.0 days since TLE Epoch: 10/2/2021
Index Date Time (GOES-16) GOES-16 Lat,Lon NOAA-19 Lat,Lon Distance(km) Time Diff (sec)
1 10/03/2021 00:14:41 -0.04, -75.19 -0.18, -75.89 79.59 80
2 10/04/2021 00:00:15 -0.04, -75.19 0.44, -73.01 248.52 80
3 10/06/2021 12:23:39 0.05, -75.22 0.68, -77.91 307.29 80
4 10/07/2021 12:09:13 0.05, -75.23 -0.02, -75.05 21.50 80
5 10/08/2021 11:57:27 0.05, -75.24 -0.66, -72.17 350.05 80
6 10/11/2021 00:20:59 -0.07, -75.23 -0.50, -77.10 213.36 80
7 10/12/2021 00:06:33 -0.07, -75.24 0.18, -74.23 115.39 80
8 10/12/2021 23:54:47 -0.07, -75.25 0.81, -71.35 444.23 80
9 10/14/2021 12:29:54 0.09, -75.29 0.98, -79.12 437.69 80
10 10/15/2021 12:18:08 0.09, -75.30 0.33, -76.24 108.29 80
